Tabellarische Ansicht des 5.6.2019


Die einzelnen Werte des Tages

Uhrzeit Temperatur Luftdruck Luftfeuchte Wind Hi-Wind Taupunkt THW Index Wind Chill Heat Index Solar- strahlung Regen

00:00

22.9 C

1001.2 hpa

70 %

12.9 km/h aus 115

22.5 km/h aus SE

17.1 C

23.3 C

22.6 C

23.6 C

0 W/m

0.00 mm

00:05

22.8 C

1001.2 hpa

70 %

14.5 km/h aus 116

24.1 km/h aus SE

17.1 C

22.7 C

22.1 C

23.4 C

0 W/m

0.00 mm

00:10

22.8 C

1001.2 hpa

70 %

14.5 km/h aus 117

22.5 km/h aus ESE

17.0 C

22.6 C

22.0 C

23.4 C

0 W/m

0.00 mm

00:15

22.7 C

1001.4 hpa

70 %

12.9 km/h aus 116

22.5 km/h aus E

17.0 C

23.1 C

22.4 C

23.3 C

0 W/m

0.00 mm

00:20

22.6 C

1001.4 hpa

70 %

14.5 km/h aus 114

27.4 km/h aus SE

16.9 C

22.4 C

21.8 C

23.2 C

0 W/m

0.00 mm

00:25

22.6 C

1001.4 hpa

70 %

14.5 km/h aus 117

24.1 km/h aus SSE

16.9 C

22.4 C

21.8 C

23.2 C

0 W/m

0.00 mm

00:30

22.6 C

1001.5 hpa

70 %

14.5 km/h aus 117

22.5 km/h aus SE

16.8 C

22.3 C

21.8 C

23.1 C

0 W/m

0.00 mm

00:35

22.6 C

1001.5 hpa

70 %

14.5 km/h aus 117

25.7 km/h aus ESE

16.8 C

22.3 C

21.8 C

23.1 C

0 W/m

0.00 mm

00:40

22.5 C

1001.5 hpa

70 %

14.5 km/h aus 114

25.7 km/h aus ESE

16.8 C

22.2 C

21.7 C

23.0 C

0 W/m

0.00 mm

00:45

22.5 C

1001.6 hpa

70 %

12.9 km/h aus 116

24.1 km/h aus ESE

16.8 C

22.7 C

22.2 C

23.0 C

0 W/m

0.00 mm

00:50

22.5 C

1001.6 hpa

70 %

14.5 km/h aus 117

20.9 km/h aus ESE

16.8 C

22.2 C

21.7 C

23.0 C

0 W/m

0.00 mm

00:55

22.6 C

1001.6 hpa

69 %

14.5 km/h aus 118

22.5 km/h aus ESE

16.6 C

22.3 C

21.8 C

23.1 C

0 W/m

0.00 mm

01:00

22.6 C

1001.7 hpa

69 %

16.1 km/h aus 115

24.1 km/h aus SE

16.6 C

21.9 C

21.4 C

23.1 C

0 W/m

0.00 mm

01:05

22.6 C

1001.7 hpa

69 %

14.5 km/h aus 115

24.1 km/h aus SE

16.6 C

22.3 C

21.8 C

23.1 C

0 W/m

0.00 mm

01:10

22.6 C

1001.7 hpa

68 %

14.5 km/h aus 117

22.5 km/h aus SE

16.4 C

22.3 C

21.8 C

23.1 C

0 W/m

0.00 mm

01:15

22.6 C

1001.8 hpa

68 %

16.1 km/h aus 117

24.1 km/h aus SE

16.4 C

21.9 C

21.4 C

23.1 C

0 W/m

0.00 mm

01:20

22.6 C

1001.8 hpa

67 %

16.1 km/h aus 117

22.5 km/h aus SE

16.2 C

21.8 C

21.4 C

23.0 C

0 W/m

0.00 mm

01:25

22.7 C

1001.8 hpa

66 %

16.1 km/h aus 114

24.1 km/h aus SSE

16.0 C

21.9 C

21.5 C

23.1 C

0 W/m

0.00 mm

01:30

22.7 C

1001.9 hpa

66 %

14.5 km/h aus 116

22.5 km/h aus SE

16.0 C

22.3 C

21.9 C

23.1 C

0 W/m

0.00 mm

01:35

22.7 C

1001.9 hpa

65 %

12.9 km/h aus 117

20.9 km/h aus SE

15.8 C

22.8 C

22.4 C

23.1 C

0 W/m

0.00 mm

01:40

22.8 C

1001.9 hpa

64 %

16.1 km/h aus 117

22.5 km/h aus SW

15.7 C

22.1 C

21.7 C

23.2 C

0 W/m

0.00 mm

01:45

23.0 C

1003.3 hpa

63 %

19.3 km/h aus 115

29.0 km/h aus SSW

15.6 C

21.7 C

21.3 C

23.4 C

0 W/m

0.00 mm

01:50

23.2 C

1003.3 hpa

62 %

20.9 km/h aus 115

33.8 km/h aus S

15.5 C

21.8 C

21.4 C

23.7 C

0 W/m

0.00 mm

01:55

23.4 C

1003.3 hpa

61 %

20.9 km/h aus 117

37.0 km/h aus SSE

15.4 C

22.0 C

21.6 C

23.8 C

0 W/m

0.00 mm

02:00

23.7 C

1003.8 hpa

59 %

24.1 km/h aus 117

41.8 km/h aus S

15.2 C

22.1 C

21.6 C

24.2 C

0 W/m

0.00 mm

02:05

23.9 C

1003.8 hpa

58 %

14.5 km/h aus 116

25.7 km/h aus S

15.2 C

23.6 C

23.2 C

24.3 C

0 W/m

0.00 mm

02:10

23.9 C

1003.8 hpa

59 %

14.5 km/h aus 115

24.1 km/h aus SSW

15.4 C

23.7 C

23.2 C

24.4 C

0 W/m

0.00 mm

02:15

23.9 C

1003.4 hpa

58 %

16.1 km/h aus 116

29.0 km/h aus SW

15.1 C

23.2 C

22.8 C

24.3 C

0 W/m

0.00 mm

02:20

23.8 C

1003.4 hpa

58 %

14.5 km/h aus 117

25.7 km/h aus SSW

15.0 C

23.4 C

23.1 C

24.2 C

0 W/m

0.00 mm

02:25

23.7 C

1003.4 hpa

57 %

9.7 km/h aus 116

19.3 km/h aus SSW

14.7 C

24.1 C

23.7 C

24.1 C

0 W/m

0.00 mm

02:30

23.7 C

1002.3 hpa

57 %

6.4 km/h aus 114

16.1 km/h aus SSW

14.6 C

24.0 C

23.7 C

24.0 C

0 W/m

0.00 mm

02:35

23.6 C

1002.3 hpa

57 %

6.4 km/h aus 116

12.9 km/h aus SSW

14.5 C

23.8 C

23.6 C

23.8 C

0 W/m

0.00 mm

02:40

23.6 C

1002.3 hpa

58 %

4.8 km/h aus 117

8.0 km/h aus S

14.8 C

23.9 C

23.6 C

23.9 C

0 W/m

0.00 mm

02:45

23.4 C

1002.2 hpa

59 %

3.2 km/h aus 116

6.4 km/h aus S

15.0 C

23.8 C

23.4 C

23.8 C

0 W/m

0.00 mm

02:50

23.3 C

1002.2 hpa

60 %

4.8 km/h aus 114

8.0 km/h aus S

15.1 C

23.7 C

23.3 C

23.7 C

0 W/m

0.00 mm

02:55

23.1 C

1002.2 hpa

60 %

4.8 km/h aus 115

8.0 km/h aus S

14.9 C

23.4 C

23.1 C

23.4 C

0 W/m

0.00 mm

03:00

22.9 C

1001.8 hpa

60 %

4.8 km/h aus 116

8.0 km/h aus E

14.8 C

23.2 C

22.9 C

23.2 C

0 W/m

0.00 mm

03:05

22.8 C

1001.8 hpa

61 %

4.8 km/h aus 118

6.4 km/h aus E

14.9 C

23.1 C

22.8 C

23.1 C

0 W/m

0.00 mm

03:10

22.6 C

1001.8 hpa

63 %

4.8 km/h aus 116

6.4 km/h aus ESE

15.2 C

22.8 C

22.6 C

22.8 C

0 W/m

0.00 mm

03:15

22.3 C

1001.8 hpa

63 %

3.2 km/h aus 115

4.8 km/h aus ESE

14.9 C

22.4 C

22.3 C

22.4 C

0 W/m

0.00 mm

03:20

22.0 C

1001.8 hpa

64 %

3.2 km/h aus 116

6.4 km/h aus ESE

14.9 C

22.1 C

22.0 C

22.1 C

0 W/m

0.00 mm

03:25

21.8 C

1001.8 hpa

65 %

3.2 km/h aus 117

6.4 km/h aus ESE

14.9 C

21.8 C

21.8 C

21.8 C

0 W/m

0.00 mm

03:30

21.6 C

1001.7 hpa

65 %

4.8 km/h aus 116

6.4 km/h aus ESE

14.7 C

21.5 C

21.6 C

21.5 C

0 W/m

0.00 mm

03:35

21.3 C

1001.7 hpa

67 %

4.8 km/h aus 114

6.4 km/h aus ESE

14.9 C

21.2 C

21.3 C

21.2 C

0 W/m

0.00 mm

03:40

21.0 C

1001.7 hpa

68 %

4.8 km/h aus 116

8.0 km/h aus ESE

14.9 C

21.0 C

21.0 C

21.0 C

0 W/m

0.00 mm

03:45

20.8 C

1001.9 hpa

68 %

4.8 km/h aus 116

8.0 km/h aus ESE

14.7 C

20.8 C

20.8 C

20.8 C

0 W/m

0.00 mm

03:50

20.6 C

1001.9 hpa

68 %

3.2 km/h aus 117

6.4 km/h aus ESE

14.5 C

20.7 C

20.6 C

20.7 C

0 W/m

0.00 mm

03:55

20.4 C

1001.9 hpa

68 %

0.0 km/h aus 115

3.2 km/h aus ESE

14.3 C

20.6 C

20.4 C

20.6 C

0 W/m

0.00 mm

04:00

20.2 C

1002.2 hpa

69 %

1.6 km/h aus 115

3.2 km/h aus ESE

14.3 C

20.4 C

20.2 C

20.4 C

0 W/m

0.00 mm

04:05

20.1 C

1002.2 hpa

69 %

1.6 km/h aus 117

3.2 km/h aus ESE

14.2 C

20.3 C

20.1 C

20.3 C

0 W/m

0.00 mm

04:10

19.8 C

1002.2 hpa

71 %

4.8 km/h aus 117

8.0 km/h aus SE

14.4 C

20.1 C

19.8 C

20.1 C

0 W/m

0.00 mm

04:15

19.6 C

1002.4 hpa

71 %

6.4 km/h aus 117

9.7 km/h aus SSE

14.2 C

19.9 C

19.6 C

19.9 C

0 W/m

0.00 mm

04:20

19.4 C

1002.4 hpa

72 %

4.8 km/h aus 114

8.0 km/h aus SE

14.3 C

19.7 C

19.4 C

19.7 C

0 W/m

0.00 mm

04:25

19.3 C

1002.4 hpa

72 %

3.2 km/h aus 116

4.8 km/h aus SE

14.1 C

19.6 C

19.3 C

19.6 C

0 W/m

0.00 mm

04:30

19.2 C

1002.6 hpa

72 %

1.6 km/h aus 115

4.8 km/h aus SE

14.0 C

19.4 C

19.2 C

19.4 C

0 W/m

0.00 mm

04:35

19.0 C

1002.6 hpa

73 %

3.2 km/h aus 117

6.4 km/h aus SE

14.0 C

19.2 C

19.0 C

19.2 C

0 W/m

0.00 mm

04:40

18.9 C

1002.6 hpa

73 %

3.2 km/h aus 116

6.4 km/h aus SSE

13.9 C

19.1 C

18.9 C

19.1 C

0 W/m

0.00 mm

04:45

18.8 C

1002.7 hpa

73 %

3.2 km/h aus 114

8.0 km/h aus S

13.8 C

18.9 C

18.8 C

18.9 C

0 W/m

0.00 mm

04:50

18.7 C

1002.7 hpa

74 %

6.4 km/h aus 117

11.3 km/h aus SSE

14.0 C

18.9 C

18.7 C

18.9 C

0 W/m

0.00 mm

04:55

18.7 C

1002.7 hpa

75 %

3.2 km/h aus 117

4.8 km/h aus SE

14.2 C

18.9 C

18.7 C

18.9 C

0 W/m

0.00 mm

05:00

18.7 C

1002.7 hpa

75 %

4.8 km/h aus 116

9.7 km/h aus NNE

14.1 C

18.9 C

18.7 C

18.9 C

1 W/m

0.00 mm

05:05

18.7 C

1002.7 hpa

75 %

4.8 km/h aus 113

6.4 km/h aus NNE

14.1 C

18.9 C

18.7 C

18.9 C

5 W/m

0.00 mm

05:10

18.7 C

1002.7 hpa

75 %

3.2 km/h aus 116

6.4 km/h aus NNE

14.1 C

18.9 C

18.7 C

18.9 C

7 W/m

0.00 mm

05:15

18.6 C

1002.8 hpa

76 %

4.8 km/h aus 117

8.0 km/h aus N

14.3 C

18.9 C

18.6 C

18.9 C

9 W/m

0.00 mm

05:20

18.6 C

1002.8 hpa

75 %

1.6 km/h aus 117

4.8 km/h aus N

14.1 C

18.8 C

18.6 C

18.8 C

10 W/m

0.00 mm

05:25

18.6 C

1002.8 hpa

75 %

3.2 km/h aus 117

4.8 km/h aus N

14.0 C

18.8 C

18.6 C

18.8 C

12 W/m

0.00 mm

05:30

18.5 C

1003.2 hpa

75 %

3.2 km/h aus 114

9.7 km/h aus W

14.0 C

18.7 C

18.5 C

18.7 C

13 W/m

0.00 mm

05:35

18.5 C

1003.2 hpa

75 %

3.2 km/h aus 117

11.3 km/h aus WNW

14.0 C

18.7 C

18.5 C

18.7 C

17 W/m

0.00 mm

05:40

18.4 C

1003.2 hpa

75 %

3.2 km/h aus 117

4.8 km/h aus W

13.9 C

18.6 C

18.4 C

18.6 C

19 W/m

0.00 mm

05:45

18.4 C

1003.2 hpa

75 %

4.8 km/h aus 117

11.3 km/h aus SW

13.9 C

18.6 C

18.4 C

18.6 C

23 W/m

0.00 mm

05:50

18.4 C

1003.2 hpa

75 %

4.8 km/h aus 116

8.0 km/h aus SW

13.9 C

18.6 C

18.4 C

18.6 C

26 W/m

0.00 mm

05:55

18.4 C

1003.2 hpa

75 %

6.4 km/h aus 115

14.5 km/h aus SW

13.9 C

18.6 C

18.4 C

18.6 C

32 W/m

0.00 mm

06:00

18.7 C

1002.8 hpa

74 %

8.0 km/h aus 117

11.3 km/h aus SSW

13.9 C

18.9 C

18.7 C

18.9 C

41 W/m

0.00 mm

06:05

19.0 C

1002.8 hpa

72 %

9.7 km/h aus 117

16.1 km/h aus SSW

13.8 C

19.2 C

19.0 C

19.2 C

64 W/m

0.00 mm

06:10

19.3 C

1002.8 hpa

72 %

8.0 km/h aus 115

14.5 km/h aus SSW

14.1 C

19.6 C

19.3 C

19.6 C

90 W/m

0.00 mm

06:15

19.6 C

1003.1 hpa

71 %

9.7 km/h aus 115

16.1 km/h aus SSW

14.2 C

19.9 C

19.6 C

19.9 C

75 W/m

0.00 mm

06:20

19.9 C

1003.1 hpa

71 %

6.4 km/h aus 116

11.3 km/h aus SSW

14.5 C

20.2 C

19.9 C

20.2 C

77 W/m

0.00 mm

06:25

20.1 C

1003.1 hpa

70 %

1.6 km/h aus 116

8.0 km/h aus SSW

14.5 C

20.4 C

20.1 C

20.4 C

67 W/m

0.00 mm

06:30

20.3 C

1003.1 hpa

70 %

4.8 km/h aus 117

8.0 km/h aus NE

14.7 C

20.6 C

20.3 C

20.6 C

70 W/m

0.00 mm

06:35

20.4 C

1003.1 hpa

70 %

8.0 km/h aus 116

12.9 km/h aus N

14.8 C

20.7 C

20.4 C

20.7 C

66 W/m

0.00 mm

06:40

20.5 C

1003.1 hpa

69 %

4.8 km/h aus 115

9.7 km/h aus N

14.6 C

20.7 C

20.5 C

20.7 C

67 W/m

0.00 mm

06:45

20.5 C

1003.2 hpa

70 %

3.2 km/h aus 117

4.8 km/h aus NNW

14.8 C

20.7 C

20.5 C

20.7 C

67 W/m

0.00 mm

06:50

20.6 C

1003.2 hpa

70 %

3.2 km/h aus 116

8.0 km/h aus W

14.9 C

20.8 C

20.6 C

20.8 C

69 W/m

0.00 mm

06:55

20.6 C

1003.2 hpa

71 %

3.2 km/h aus 117

6.4 km/h aus W

15.1 C

20.8 C

20.6 C

20.8 C

72 W/m

0.00 mm

07:00

20.5 C

1003.7 hpa

71 %

6.4 km/h aus 113

9.7 km/h aus WSW

15.1 C

20.8 C

20.5 C

20.8 C

72 W/m

0.00 mm

07:05

20.5 C

1003.7 hpa

70 %

4.8 km/h aus 116

9.7 km/h aus SSW

14.8 C

20.7 C

20.5 C

20.7 C

65 W/m

0.00 mm

07:10

20.6 C

1003.7 hpa

71 %

3.2 km/h aus 117

6.4 km/h aus SSW

15.1 C

20.8 C

20.6 C

20.8 C

78 W/m

0.00 mm

07:15

20.6 C

1004.3 hpa

71 %

4.8 km/h aus 116

8.0 km/h aus SSW

15.1 C

20.8 C

20.6 C

20.8 C

114 W/m

0.00 mm

07:20

20.6 C

1004.3 hpa

71 %

3.2 km/h aus 117

6.4 km/h aus SW

15.2 C

20.9 C

20.6 C

20.9 C

152 W/m

0.00 mm

07:25

20.7 C

1004.3 hpa

71 %

4.8 km/h aus 113

8.0 km/h aus SW

15.2 C

20.9 C

20.7 C

20.9 C

166 W/m

0.00 mm

07:30

20.8 C

1004.1 hpa

70 %

3.2 km/h aus 117

8.0 km/h aus SW

15.1 C

20.9 C

20.8 C

20.9 C

154 W/m

0.00 mm

07:35

20.9 C

1004.1 hpa

70 %

6.4 km/h aus 117

11.3 km/h aus SSW

15.3 C

21.1 C

20.9 C

21.1 C

121 W/m

0.00 mm

07:40

21.1 C

1004.1 hpa

70 %

4.8 km/h aus 115

9.7 km/h aus S

15.4 C

21.1 C

21.1 C

21.1 C

134 W/m

0.00 mm

07:45

21.2 C

1004.3 hpa

72 %

4.8 km/h aus 115

6.4 km/h aus S

16.0 C

21.4 C

21.2 C

21.4 C

133 W/m

0.00 mm

07:50

21.3 C

1004.3 hpa

73 %

3.2 km/h aus 116

6.4 km/h aus S

16.3 C

21.6 C

21.3 C

21.6 C

130 W/m

0.00 mm

07:55

21.4 C

1004.3 hpa

73 %

1.6 km/h aus 117

3.2 km/h aus S

16.3 C

21.7 C

21.4 C

21.7 C

145 W/m

0.00 mm

08:00

21.4 C

1004.4 hpa

73 %

0.0 km/h aus 117

3.2 km/h aus S

16.4 C

21.7 C

21.4 C

21.7 C

142 W/m

0.00 mm

08:05

21.4 C

1004.4 hpa

71 %

6.4 km/h aus 114

11.3 km/h aus WSW

15.9 C

21.6 C

21.4 C

21.6 C

129 W/m

0.00 mm

08:10

21.3 C

1004.4 hpa

70 %

4.8 km/h aus 116

11.3 km/h aus SSW

15.6 C

21.4 C

21.3 C

21.4 C

145 W/m

0.00 mm

08:15

21.3 C

1004.8 hpa

69 %

4.8 km/h aus 117

11.3 km/h aus SW

15.4 C

21.4 C

21.3 C

21.4 C

159 W/m

0.00 mm

08:20

21.3 C

1004.8 hpa

69 %

6.4 km/h aus 117

11.3 km/h aus SSW

15.4 C

21.4 C

21.3 C

21.4 C

175 W/m

0.00 mm

08:25

21.3 C

1004.8 hpa

69 %

3.2 km/h aus 116

6.4 km/h aus SW

15.4 C

21.4 C

21.3 C

21.4 C

180 W/m

0.00 mm

08:30

21.4 C

1004.7 hpa

69 %

3.2 km/h aus 115

4.8 km/h aus SW

15.5 C

21.5 C

21.4 C

21.5 C

194 W/m

0.00 mm

08:35

21.5 C

1004.7 hpa

70 %

4.8 km/h aus 117

11.3 km/h aus WSW

15.8 C

21.7 C

21.5 C

21.7 C

206 W/m

0.00 mm

08:40

21.6 C

1004.7 hpa

69 %

4.8 km/h aus 117

8.0 km/h aus WSW

15.7 C

21.8 C

21.6 C

21.8 C

452 W/m

0.00 mm

08:45

21.9 C

1004.6 hpa

70 %

4.8 km/h aus 117

6.4 km/h aus WSW

16.2 C

22.2 C

21.9 C

22.2 C

471 W/m

0.00 mm

08:50

22.2 C

1004.6 hpa

68 %

3.2 km/h aus 114

6.4 km/h aus WNW

16.0 C

22.5 C

22.2 C

22.5 C

467 W/m

0.00 mm

08:55

22.6 C

1004.6 hpa

68 %

1.6 km/h aus 116

4.8 km/h aus WNW

16.4 C

23.0 C

22.6 C

23.0 C

482 W/m

0.00 mm

09:00

22.8 C

1004.5 hpa

65 %

4.8 km/h aus 117

8.0 km/h aus WNW

15.9 C

23.2 C

22.8 C

23.2 C

489 W/m

0.00 mm

09:05

23.1 C

1004.5 hpa

64 %

1.6 km/h aus 117

4.8 km/h aus WNW

15.9 C

23.6 C

23.1 C

23.6 C

478 W/m

0.00 mm

09:10

23.3 C

1004.5 hpa

65 %

3.2 km/h aus 113

11.3 km/h aus WNW

16.3 C

23.9 C

23.3 C

23.9 C

495 W/m

0.00 mm

09:15

23.4 C

1004.8 hpa

63 %

4.8 km/h aus 115

9.7 km/h aus WNW

15.9 C

23.9 C

23.4 C

23.9 C

489 W/m

0.00 mm

09:20

23.6 C

1004.8 hpa

64 %

3.2 km/h aus 116

9.7 km/h aus WSW

16.3 C

24.2 C

23.6 C

24.2 C

508 W/m

0.00 mm

09:25

23.7 C

1004.8 hpa

63 %

3.2 km/h aus 118

4.8 km/h aus W

16.3 C

24.3 C

23.7 C

24.3 C

516 W/m

0.00 mm

09:30

23.9 C

1004.8 hpa

63 %

4.8 km/h aus 115

8.0 km/h aus NW

16.4 C

24.5 C

23.9 C

24.5 C

519 W/m

0.00 mm

09:35

24.2 C

1004.8 hpa

63 %

6.4 km/h aus 113

9.7 km/h aus N

16.7 C

24.8 C

24.2 C

24.8 C

529 W/m

0.00 mm

09:40

23.0 C

1004.8 hpa

64 %

4.8 km/h aus 117

8.0 km/h aus NW

15.8 C

23.4 C

23.0 C

23.4 C

536 W/m

0.00 mm

09:45

22.8 C

1004.8 hpa

67 %

4.8 km/h aus 117

8.0 km/h aus NW

16.3 C

23.3 C

22.8 C

23.3 C

543 W/m

0.00 mm

09:50

22.6 C

1004.8 hpa

68 %

3.2 km/h aus 117

6.4 km/h aus W

16.4 C

23.1 C

22.6 C

23.1 C

550 W/m

0.00 mm

09:55

23.2 C

1004.8 hpa

68 %

4.8 km/h aus 115

8.0 km/h aus N

17.0 C

23.9 C

23.2 C

23.9 C

557 W/m

0.00 mm

10:00

23.3 C

1004.8 hpa

66 %

4.8 km/h aus 116

11.3 km/h aus WNW

16.6 C

23.9 C

23.3 C

23.9 C

568 W/m

0.00 mm

10:05

23.2 C

1004.8 hpa

65 %

4.8 km/h aus 117

8.0 km/h aus W

16.3 C

23.8 C

23.2 C

23.8 C

567 W/m

0.00 mm

10:10

23.3 C

1004.8 hpa

64 %

4.8 km/h aus 117

9.7 km/h aus W

16.1 C

23.9 C

23.3 C

23.9 C

561 W/m

0.00 mm

10:15

23.6 C

1004.9 hpa

66 %

4.8 km/h aus 116

9.7 km/h aus WNW

16.8 C

24.3 C

23.6 C

24.3 C

557 W/m

0.00 mm

10:20

23.6 C

1004.9 hpa

65 %

6.4 km/h aus 115

9.7 km/h aus W

16.6 C

24.3 C

23.6 C

24.3 C

560 W/m

0.00 mm

10:25

23.1 C

1004.9 hpa

66 %

3.2 km/h aus 117

8.0 km/h aus W

16.4 C

23.7 C

23.1 C

23.7 C

569 W/m

0.00 mm

10:30

23.7 C

1005.2 hpa

66 %

3.2 km/h aus 117

6.4 km/h aus WNW

17.0 C

24.4 C

23.7 C

24.4 C

572 W/m

0.00 mm

10:35

23.9 C

1005.2 hpa

65 %

6.4 km/h aus 117

11.3 km/h aus WSW

17.0 C

24.7 C

23.9 C

24.7 C

573 W/m

0.00 mm

10:40

23.4 C

1005.2 hpa

65 %

4.8 km/h aus 113

11.3 km/h aus W

16.5 C

24.1 C

23.4 C

24.1 C

575 W/m

0.00 mm

10:45

23.8 C

1005.2 hpa

65 %

4.8 km/h aus 116

11.3 km/h aus WNW

16.9 C

24.6 C

23.8 C

24.6 C

577 W/m

0.00 mm

10:50

24.1 C

1005.2 hpa

63 %

8.0 km/h aus 117

11.3 km/h aus W

16.6 C

24.7 C

24.1 C

24.7 C

577 W/m

0.00 mm

10:55

24.3 C

1005.2 hpa

64 %

6.4 km/h aus 117

9.7 km/h aus NW

17.0 C

24.9 C

24.3 C

24.9 C

582 W/m

0.00 mm

11:00

24.3 C

1005.1 hpa

64 %

8.0 km/h aus 115

16.1 km/h aus NW

17.1 C

24.9 C

24.3 C

24.9 C

603 W/m

0.00 mm

11:05

24.4 C

1005.1 hpa

63 %

8.0 km/h aus 115

12.9 km/h aus NW

16.9 C

24.9 C

24.4 C

24.9 C

547 W/m

0.00 mm

11:10

24.7 C

1005.1 hpa

63 %

6.4 km/h aus 117

14.5 km/h aus NNW

17.2 C

25.2 C

24.7 C

25.2 C

601 W/m

0.00 mm

11:15

24.8 C

1005.3 hpa

64 %

4.8 km/h aus 117

8.0 km/h aus NNW

17.5 C

25.4 C

24.8 C

25.4 C

626 W/m

0.00 mm

11:20

24.8 C

1005.3 hpa

65 %

9.7 km/h aus 116

16.1 km/h aus WNW

17.8 C

25.6 C

24.8 C

25.6 C

620 W/m

0.00 mm

11:25

24.3 C

1005.3 hpa

64 %

9.7 km/h aus 115

16.1 km/h aus N

17.1 C

24.9 C

24.3 C

24.9 C

372 W/m

0.00 mm

11:30

23.6 C

1005.3 hpa

65 %

6.4 km/h aus 117

11.3 km/h aus WNW

16.6 C

24.2 C

23.6 C

24.2 C

179 W/m

0.00 mm

11:35

23.1 C

1005.3 hpa

69 %

4.8 km/h aus 117

9.7 km/h aus NW

17.1 C

23.8 C

23.1 C

23.8 C

157 W/m

0.00 mm

11:40

22.6 C

1005.3 hpa

74 %

4.8 km/h aus 115

6.4 km/h aus N

17.7 C

23.3 C

22.6 C

23.3 C

174 W/m

0.00 mm

11:45

22.4 C

1005.0 hpa

73 %

4.8 km/h aus 115

6.4 km/h aus NNW

17.4 C

23.1 C

22.4 C

23.1 C

157 W/m

0.00 mm

11:50

22.4 C

1005.0 hpa

75 %

4.8 km/h aus 117

8.0 km/h aus WNW

17.8 C

23.1 C

22.4 C

23.1 C

136 W/m

0.00 mm

11:55

22.3 C

1005.0 hpa

75 %

3.2 km/h aus 116

8.0 km/h aus W

17.7 C

22.9 C

22.3 C

22.9 C

151 W/m

0.00 mm

12:00

22.3 C

1005.4 hpa

74 %

3.2 km/h aus 117

8.0 km/h aus W

17.4 C

22.8 C

22.3 C

22.8 C

158 W/m

0.00 mm

12:05

22.4 C

1005.4 hpa

76 %

3.2 km/h aus 114

6.4 km/h aus W

17.9 C

23.1 C

22.4 C

23.1 C

202 W/m

0.00 mm

12:10

22.3 C

1005.4 hpa

75 %

4.8 km/h aus 114

8.0 km/h aus NNW

17.7 C

22.9 C

22.3 C

22.9 C

224 W/m

0.00 mm

12:15

22.6 C

1005.4 hpa

73 %

3.2 km/h aus 117

4.8 km/h aus N

17.5 C

23.3 C

22.6 C

23.3 C

304 W/m

0.00 mm

12:20

22.8 C

1005.4 hpa

71 %

3.2 km/h aus 117

6.4 km/h aus NW

17.2 C

23.4 C

22.8 C

23.4 C

283 W/m

0.00 mm

12:25

22.9 C

1005.4 hpa

71 %

3.2 km/h aus 115

6.4 km/h aus NNE

17.4 C

23.7 C

22.9 C

23.7 C

320 W/m

0.00 mm

12:30

22.9 C

1005.6 hpa

70 %

3.2 km/h aus 116

4.8 km/h aus NNE

17.1 C

23.6 C

22.9 C

23.6 C

327 W/m

0.00 mm

12:35

22.8 C

1005.6 hpa

69 %

3.2 km/h aus 118

6.4 km/h aus NE

16.8 C

23.3 C

22.8 C

23.3 C

302 W/m

0.00 mm

12:40

22.9 C

1005.6 hpa

70 %

3.2 km/h aus 116

6.4 km/h aus NE

17.1 C

23.6 C

22.9 C

23.6 C

312 W/m

0.00 mm

12:45

22.9 C

1005.4 hpa

72 %

4.8 km/h aus 116

8.0 km/h aus NE

17.6 C

23.7 C

22.9 C

23.7 C

274 W/m

0.00 mm

12:50

22.9 C

1005.4 hpa

75 %

4.8 km/h aus 115

8.0 km/h aus NE

18.2 C

23.8 C

22.9 C

23.8 C

369 W/m

0.00 mm

12:55

23.0 C

1005.4 hpa

76 %

3.2 km/h aus 116

6.4 km/h aus NE

18.5 C

23.9 C

23.0 C

23.9 C

389 W/m

0.00 mm

13:00

22.9 C

1005.3 hpa

76 %

6.4 km/h aus 117

9.7 km/h aus ENE

18.4 C

23.8 C

22.9 C

23.8 C

320 W/m

0.00 mm

13:05

22.6 C

1005.3 hpa

75 %

8.0 km/h aus 117

12.9 km/h aus NE

18.0 C

23.3 C

22.6 C

23.3 C

224 W/m

0.00 mm

13:10

22.2 C

1005.3 hpa

79 %

8.0 km/h aus 113

16.1 km/h aus NE

18.4 C

22.9 C

22.2 C

22.9 C

221 W/m

0.25 mm

13:15

21.9 C

1004.8 hpa

81 %

4.8 km/h aus 116

11.3 km/h aus NE

18.5 C

22.7 C

21.9 C

22.7 C

319 W/m

0.00 mm

13:20

22.0 C

1004.8 hpa

80 %

8.0 km/h aus 117

14.5 km/h aus NNE

18.4 C

22.8 C

22.0 C

22.8 C

325 W/m

0.00 mm

13:25

21.9 C

1004.8 hpa

81 %

4.8 km/h aus 116

9.7 km/h aus ENE

18.5 C

22.7 C

21.9 C

22.7 C

293 W/m

0.00 mm

13:30

22.1 C

1004.8 hpa

81 %

4.8 km/h aus 115

11.3 km/h aus NNE

18.7 C

22.9 C

22.1 C

22.9 C

386 W/m

0.25 mm

13:35

22.3 C

1004.8 hpa

79 %

1.6 km/h aus 115

4.8 km/h aus N

18.5 C

23.1 C

22.3 C

23.1 C

612 W/m

0.25 mm

13:40

22.5 C

1004.8 hpa

81 %

3.2 km/h aus 118

4.8 km/h aus N

19.1 C

23.4 C

22.5 C

23.4 C

404 W/m

0.25 mm

13:45

22.6 C

1004.7 hpa

81 %

3.2 km/h aus 117

4.8 km/h aus NNW

19.2 C

23.6 C

22.6 C

23.6 C

374 W/m

0.00 mm

13:50

22.4 C

1004.7 hpa

81 %

3.2 km/h aus 116

6.4 km/h aus NNW

19.0 C

23.3 C

22.4 C

23.3 C

302 W/m

0.00 mm

13:55

22.3 C

1004.7 hpa

79 %

3.2 km/h aus 115

4.8 km/h aus NNW

18.5 C

23.1 C

22.3 C

23.1 C

231 W/m

0.00 mm

14:00

22.2 C

1004.8 hpa

80 %

3.2 km/h aus 117

4.8 km/h aus NNW

18.6 C

22.9 C

22.2 C

22.9 C

199 W/m

0.00 mm

14:05

22.1 C

1004.8 hpa

81 %

4.8 km/h aus 116

6.4 km/h aus NNW

18.7 C

22.9 C

22.1 C

22.9 C

218 W/m

0.00 mm

14:10

22.2 C

1004.8 hpa

81 %

3.2 km/h aus 117

6.4 km/h aus NNE

18.8 C

23.0 C

22.2 C

23.0 C

207 W/m

0.00 mm

14:15

22.2 C

1004.7 hpa

80 %

3.2 km/h aus 114

9.7 km/h aus N

18.6 C

22.9 C

22.2 C

22.9 C

162 W/m

0.00 mm

14:20

22.1 C

1004.7 hpa

79 %

3.2 km/h aus 117

6.4 km/h aus NE

18.3 C

22.8 C

22.1 C

22.8 C

146 W/m

0.00 mm

14:25

22.1 C

1004.7 hpa

81 %

1.6 km/h aus 116

4.8 km/h aus NE

18.6 C

22.9 C

22.1 C

22.9 C

164 W/m

0.00 mm

14:30

22.1 C

1004.4 hpa

82 %

3.2 km/h aus 117

8.0 km/h aus NE

18.9 C

22.9 C

22.1 C

22.9 C

186 W/m

0.00 mm

14:35

22.1 C

1004.4 hpa

83 %

6.4 km/h aus 115

9.7 km/h aus NE

19.0 C

22.9 C

22.1 C

22.9 C

204 W/m

0.00 mm

14:40

22.2 C

1004.4 hpa

83 %

4.8 km/h aus 116

11.3 km/h aus N

19.1 C

23.1 C

22.2 C

23.1 C

259 W/m

0.00 mm

14:45

22.3 C

1004.2 hpa

82 %

4.8 km/h aus 117

11.3 km/h aus NNE

19.1 C

23.2 C

22.3 C

23.2 C

347 W/m

0.00 mm

14:50

22.3 C

1004.2 hpa

79 %

4.8 km/h aus 117

8.0 km/h aus NE

18.5 C

23.1 C

22.3 C

23.1 C

278 W/m

0.00 mm

14:55

22.5 C

1004.2 hpa

79 %

4.8 km/h aus 115

9.7 km/h aus NNE

18.7 C

23.3 C

22.5 C

23.3 C

303 W/m

0.00 mm

15:00

23.0 C

1004.0 hpa

79 %

4.8 km/h aus 116

9.7 km/h aus NNW

19.2 C

24.0 C

23.0 C

24.0 C

443 W/m

0.00 mm

15:05

22.8 C

1004.0 hpa

77 %

4.8 km/h aus 117

8.0 km/h aus NW

18.5 C

23.7 C

22.8 C

23.7 C

255 W/m

0.00 mm

15:10

22.6 C

1004.0 hpa

77 %

3.2 km/h aus 117

8.0 km/h aus WNW

18.4 C

23.4 C

22.6 C

23.4 C

230 W/m

0.00 mm

15:15

22.7 C

1004.3 hpa

78 %

3.2 km/h aus 114

4.8 km/h aus WNW

18.6 C

23.6 C

22.7 C

23.6 C

307 W/m

0.00 mm

15:20

23.1 C

1004.3 hpa

80 %

1.6 km/h aus 115

6.4 km/h aus NW

19.4 C

24.1 C

23.1 C

24.1 C

414 W/m

0.00 mm

15:25

23.3 C

1004.3 hpa

76 %

4.8 km/h aus 117

8.0 km/h aus NNW

18.9 C

24.4 C

23.3 C

24.4 C

510 W/m

0.00 mm

15:30

23.8 C

1003.9 hpa

75 %

4.8 km/h aus 117

9.7 km/h aus N

19.1 C

24.9 C

23.8 C

24.9 C

601 W/m

0.00 mm

15:35

24.5 C

1003.9 hpa

75 %

4.8 km/h aus 116

8.0 km/h aus NNW

19.8 C

25.8 C

24.5 C

25.8 C

641 W/m

0.00 mm

15:40

24.4 C

1003.9 hpa

70 %

6.4 km/h aus 113

9.7 km/h aus N

18.6 C

25.4 C

24.4 C

25.4 C

605 W/m

0.00 mm

15:45

24.3 C

1003.8 hpa

72 %

6.4 km/h aus 118

9.7 km/h aus NNW

18.9 C

25.4 C

24.3 C

25.4 C

607 W/m

0.00 mm

15:50

24.6 C

1003.8 hpa

74 %

4.8 km/h aus 117

9.7 km/h aus NNW

19.6 C

25.8 C

24.6 C

25.8 C

598 W/m

0.00 mm

15:55

24.5 C

1003.8 hpa

72 %

6.4 km/h aus 117

11.3 km/h aus NW

19.1 C

25.7 C

24.5 C

25.7 C

572 W/m

0.25 mm

16:00

24.4 C

1003.7 hpa

74 %

6.4 km/h aus 114

9.7 km/h aus NNW

19.5 C

25.7 C

24.4 C

25.7 C

594 W/m

0.00 mm

16:05

24.8 C

1003.7 hpa

73 %

6.4 km/h aus 117

9.7 km/h aus NW

19.7 C

26.1 C

24.8 C

26.1 C

607 W/m

0.00 mm

16:10

24.7 C

1003.7 hpa

72 %

4.8 km/h aus 117

8.0 km/h aus NNW

19.3 C

25.9 C

24.7 C

25.9 C

340 W/m

0.00 mm

16:15

24.7 C

1003.4 hpa

72 %

4.8 km/h aus 117

9.7 km/h aus NW

19.3 C

25.9 C

24.7 C

25.9 C

593 W/m

0.00 mm

16:20

25.3 C

1003.4 hpa

72 %

4.8 km/h aus 114

9.7 km/h aus NW

19.9 C

26.6 C

25.3 C

26.6 C

581 W/m

0.00 mm

16:25

25.4 C

1003.4 hpa

70 %

4.8 km/h aus 116

9.7 km/h aus NW

19.6 C

26.6 C

25.4 C

26.6 C

536 W/m

0.00 mm

16:30

25.1 C

1003.3 hpa

70 %

4.8 km/h aus 116

9.7 km/h aus NNW

19.3 C

26.2 C

25.1 C

26.2 C

527 W/m

0.00 mm

16:35

25.3 C

1003.3 hpa

70 %

6.4 km/h aus 116

9.7 km/h aus WNW

19.5 C

26.4 C

25.3 C

26.4 C

547 W/m

0.00 mm

16:40

25.2 C

1003.3 hpa

70 %

6.4 km/h aus 115

11.3 km/h aus WNW

19.4 C

26.3 C

25.2 C

26.3 C

550 W/m

0.00 mm

16:45

25.4 C

1003.2 hpa

70 %

6.4 km/h aus 115

9.7 km/h aus NNW

19.5 C

26.5 C

25.4 C

26.5 C

545 W/m

0.00 mm

16:50

25.3 C

1003.2 hpa

69 %

4.8 km/h aus 118

9.7 km/h aus N

19.2 C

26.3 C

25.3 C

26.3 C

540 W/m

0.00 mm

16:55

25.5 C

1003.2 hpa

68 %

4.8 km/h aus 117

8.0 km/h aus N

19.2 C

26.5 C

25.5 C

26.5 C

536 W/m

0.00 mm

17:00

25.6 C

1003.1 hpa

69 %

4.8 km/h aus 117

11.3 km/h aus N

19.5 C

26.7 C

25.6 C

26.7 C

520 W/m

0.00 mm

17:05

25.8 C

1003.1 hpa

70 %

4.8 km/h aus 114

9.7 km/h aus N

19.9 C

26.9 C

25.8 C

26.9 C

544 W/m

0.00 mm

17:10

25.9 C

1003.1 hpa

68 %

4.8 km/h aus 117

9.7 km/h aus NNW

19.5 C

26.9 C

25.9 C

26.9 C

549 W/m

0.00 mm

17:15

25.8 C

1002.8 hpa

68 %

4.8 km/h aus 116

8.0 km/h aus NW

19.5 C

26.9 C

25.8 C

26.9 C

556 W/m

0.00 mm

17:20

26.2 C

1002.8 hpa

68 %

6.4 km/h aus 117

9.7 km/h aus N

19.8 C

27.4 C

26.2 C

27.4 C

568 W/m

0.00 mm

17:25

26.3 C

1002.8 hpa

66 %

4.8 km/h aus 115

9.7 km/h aus WNW

19.4 C

27.3 C

26.3 C

27.3 C

578 W/m

0.00 mm

17:30

26.2 C

1002.7 hpa

67 %

6.4 km/h aus 116

14.5 km/h aus NNW

19.6 C

27.3 C

26.2 C

27.3 C

566 W/m

0.00 mm

17:35

26.3 C

1002.7 hpa

66 %

4.8 km/h aus 117

11.3 km/h aus NNE

19.5 C

27.4 C

26.3 C

27.4 C

548 W/m

0.00 mm

17:40

26.2 C

1002.7 hpa

67 %

6.4 km/h aus 117

11.3 km/h aus N

19.6 C

27.3 C

26.2 C

27.3 C

519 W/m

0.00 mm

17:45

26.1 C

1002.5 hpa

65 %

6.4 km/h aus 114

12.9 km/h aus NNW

19.0 C

27.1 C

26.1 C

27.1 C

473 W/m

0.00 mm

17:50

26.1 C

1002.5 hpa

68 %

4.8 km/h aus 117

9.7 km/h aus N

19.7 C

27.3 C

26.1 C

27.3 C

446 W/m

0.00 mm

17:55

25.9 C

1002.5 hpa

70 %

8.0 km/h aus 116

12.9 km/h aus NNE

20.0 C

27.2 C

25.9 C

27.2 C

387 W/m

0.00 mm

18:00

25.9 C

1002.3 hpa

68 %

3.2 km/h aus 117

8.0 km/h aus NE

19.6 C

27.1 C

25.9 C

27.1 C

405 W/m

0.00 mm

18:05

25.9 C

1002.3 hpa

68 %

4.8 km/h aus 114

11.3 km/h aus N

19.6 C

27.1 C

25.9 C

27.1 C

362 W/m

0.00 mm

18:10

25.8 C

1002.3 hpa

68 %

6.4 km/h aus 115

11.3 km/h aus N

19.5 C

26.9 C

25.8 C

26.9 C

346 W/m

0.00 mm

18:15

25.7 C

1002.2 hpa

70 %

6.4 km/h aus 116

12.9 km/h aus N

19.8 C

26.9 C

25.7 C

26.9 C

399 W/m

0.00 mm

18:20

25.7 C

1002.2 hpa

68 %

6.4 km/h aus 117

11.3 km/h aus WNW

19.3 C

26.7 C

25.7 C

26.7 C

400 W/m

0.00 mm

18:25

25.6 C

1002.2 hpa

69 %

4.8 km/h aus 115

11.3 km/h aus NW

19.5 C

26.7 C

25.6 C

26.7 C

297 W/m

0.00 mm

18:30

25.6 C

1002.2 hpa

69 %

6.4 km/h aus 114

12.9 km/h aus NW

19.4 C

26.6 C

25.6 C

26.6 C

376 W/m

0.00 mm

18:35

25.5 C

1002.2 hpa

69 %

6.4 km/h aus 117

12.9 km/h aus NW

19.4 C

26.6 C

25.5 C

26.6 C

371 W/m

0.00 mm

18:40

25.3 C

1002.2 hpa

70 %

4.8 km/h aus 117

9.7 km/h aus NNW

19.5 C

26.4 C

25.3 C

26.4 C

181 W/m

0.00 mm

18:45

25.1 C

1002.2 hpa

70 %

4.8 km/h aus 116

11.3 km/h aus WNW

19.3 C

26.2 C

25.1 C

26.2 C

202 W/m

0.00 mm

18:50

25.2 C

1002.2 hpa

71 %

4.8 km/h aus 113

11.3 km/h aus N

19.6 C

26.4 C

25.2 C

26.4 C

205 W/m

0.00 mm

18:55

25.3 C

1002.2 hpa

71 %

3.2 km/h aus 118

6.4 km/h aus N

19.7 C

26.5 C

25.3 C

26.5 C

105 W/m

0.00 mm

19:00

25.3 C

1002.1 hpa

70 %

4.8 km/h aus 117

9.7 km/h aus NW

19.5 C

26.4 C

25.3 C

26.4 C

98 W/m

0.00 mm

19:05

25.4 C

1002.1 hpa

70 %

4.8 km/h aus 116

8.0 km/h aus WNW

19.5 C

26.5 C

25.4 C

26.5 C

86 W/m

0.00 mm

19:10

25.4 C

1002.1 hpa

70 %

4.8 km/h aus 115

11.3 km/h aus NW

19.5 C

26.5 C

25.4 C

26.5 C

85 W/m

0.00 mm

19:15

25.4 C

1002.1 hpa

70 %

6.4 km/h aus 116

11.3 km/h aus NNE

19.5 C

26.5 C

25.4 C

26.5 C

89 W/m

0.00 mm

19:20

25.4 C

1002.1 hpa

70 %

4.8 km/h aus 117

9.7 km/h aus NNW

19.5 C

26.5 C

25.4 C

26.5 C

91 W/m

0.00 mm

19:25

25.3 C

1002.1 hpa

70 %

4.8 km/h aus 117

11.3 km/h aus NNW

19.5 C

26.4 C

25.3 C

26.4 C

96 W/m

0.00 mm

19:30

25.3 C

1002.0 hpa

70 %

6.4 km/h aus 115

11.3 km/h aus NNW

19.5 C

26.4 C

25.3 C

26.4 C

99 W/m

0.00 mm

19:35

25.3 C

1002.0 hpa

70 %

6.4 km/h aus 114

14.5 km/h aus N

19.5 C

26.4 C

25.3 C

26.4 C

101 W/m

0.00 mm

19:40

25.3 C

1002.0 hpa

71 %

8.0 km/h aus 117

17.7 km/h aus NNE

19.7 C

26.5 C

25.3 C

26.5 C

105 W/m

0.00 mm

19:45

25.3 C

1001.8 hpa

71 %

4.8 km/h aus 116

9.7 km/h aus NNW

19.7 C

26.5 C

25.3 C

26.5 C

113 W/m

0.00 mm

19:50

25.4 C

1001.8 hpa

71 %

6.4 km/h aus 115

11.3 km/h aus N

19.7 C

26.6 C

25.4 C

26.6 C

113 W/m

0.00 mm

19:55

25.4 C

1001.8 hpa

71 %

6.4 km/h aus 115

16.1 km/h aus N

19.7 C

26.6 C

25.4 C

26.6 C

101 W/m

0.00 mm

20:00

25.3 C

1001.7 hpa

70 %

6.4 km/h aus 118

16.1 km/h aus N

19.5 C

26.4 C

25.3 C

26.4 C

90 W/m

0.00 mm

20:05

25.3 C

1001.7 hpa

70 %

4.8 km/h aus 117

9.7 km/h aus NNE

19.5 C

26.4 C

25.3 C

26.4 C

83 W/m

0.00 mm

20:10

25.3 C

1001.7 hpa

71 %

3.2 km/h aus 116

8.0 km/h aus N

19.7 C

26.5 C

25.3 C

26.5 C

69 W/m

0.00 mm

20:15

25.3 C

1001.7 hpa

70 %

6.4 km/h aus 114

11.3 km/h aus N

19.4 C

26.4 C

25.3 C

26.4 C

57 W/m

0.00 mm

20:20

25.2 C

1001.7 hpa

70 %

6.4 km/h aus 117

11.3 km/h aus NNE

19.3 C

26.2 C

25.2 C

26.2 C

48 W/m

0.00 mm

20:25

25.1 C

1001.7 hpa

70 %

4.8 km/h aus 117

12.9 km/h aus NNE

19.2 C

26.1 C

25.1 C

26.1 C

42 W/m

0.00 mm

20:30

24.9 C

1001.7 hpa

70 %

3.2 km/h aus 116

8.0 km/h aus NNE

19.1 C

26.0 C

24.9 C

26.0 C

38 W/m

0.00 mm

20:35

24.8 C

1001.7 hpa

70 %

4.8 km/h aus 114

11.3 km/h aus NNE

19.0 C

25.9 C

24.8 C

25.9 C

33 W/m

0.00 mm

20:40

24.7 C

1001.7 hpa

71 %

4.8 km/h aus 116

8.0 km/h aus NNE

19.1 C

25.8 C

24.7 C

25.8 C

30 W/m

0.00 mm

20:45

24.7 C

1001.5 hpa

71 %

3.2 km/h aus 116

8.0 km/h aus NE

19.1 C

25.8 C

24.7 C

25.8 C

26 W/m

0.00 mm

20:50

24.5 C

1001.5 hpa

72 %

4.8 km/h aus 117

11.3 km/h aus NE

19.1 C

25.7 C

24.5 C

25.7 C

22 W/m

0.00 mm

20:55

24.4 C

1001.5 hpa

72 %

3.2 km/h aus 114

6.4 km/h aus NNE

19.1 C

25.6 C

24.4 C

25.6 C

19 W/m

0.00 mm

21:00

24.3 C

1001.3 hpa

72 %

1.6 km/h aus 118

4.8 km/h aus NNE

18.9 C

25.4 C

24.3 C

25.4 C

17 W/m

0.00 mm

21:05

24.2 C

1001.3 hpa

73 %

1.6 km/h aus 117

4.8 km/h aus NE

19.0 C

25.3 C

24.2 C

25.3 C

14 W/m

0.00 mm

21:10

24.1 C

1001.3 hpa

73 %

3.2 km/h aus 117

6.4 km/h aus NE

18.9 C

25.2 C

24.1 C

25.2 C

12 W/m

0.00 mm

21:15

23.9 C

1001.2 hpa

73 %

3.2 km/h aus 115

8.0 km/h aus NE

18.8 C

24.9 C

23.9 C

24.9 C

10 W/m

0.00 mm

21:20

23.7 C

1001.2 hpa

74 %

1.6 km/h aus 116

4.8 km/h aus NE

18.8 C

24.8 C

23.7 C

24.8 C

8 W/m

0.00 mm

21:25

23.6 C

1001.2 hpa

74 %

1.6 km/h aus 117

4.8 km/h aus NE

18.6 C

24.6 C

23.6 C

24.6 C

6 W/m

0.00 mm

21:30

23.4 C

1001.1 hpa

74 %

1.6 km/h aus 117

4.8 km/h aus NE

18.5 C

24.5 C

23.4 C

24.5 C

4 W/m

0.00 mm

21:35

23.3 C

1001.1 hpa

74 %

1.6 km/h aus 116

3.2 km/h aus NE

18.4 C

24.3 C

23.3 C

24.3 C

0 W/m

0.00 mm

21:40

23.2 C

1001.1 hpa

75 %

0.0 km/h aus 115

3.2 km/h aus NE

18.5 C

24.2 C

23.2 C

24.2 C

0 W/m

0.00 mm

21:45

23.0 C

1001.0 hpa

75 %

0.0 km/h aus 115

1.6 km/h aus NE

18.3 C

23.9 C

23.0 C

23.9 C

0 W/m

0.00 mm

21:50

22.8 C

1001.0 hpa

75 %

0.0 km/h aus 116

0.0 km/h aus ---

18.2 C

23.7 C

22.8 C

23.7 C

0 W/m

0.00 mm

21:55

22.7 C

1001.0 hpa

76 %

1.6 km/h aus 116

3.2 km/h aus NE

18.2 C

23.5 C

22.7 C

23.5 C

0 W/m

0.00 mm

22:00

22.5 C

1000.8 hpa

76 %

1.6 km/h aus 112

3.2 km/h aus NE

18.1 C

23.2 C

22.5 C

23.2 C

0 W/m

0.00 mm

22:05

22.3 C

1000.8 hpa

77 %

1.6 km/h aus 117

4.8 km/h aus NE

18.1 C

23.1 C

22.3 C

23.1 C

0 W/m

0.00 mm

22:10

22.2 C

1000.8 hpa

77 %

1.6 km/h aus 116

3.2 km/h aus NE

18.0 C

22.9 C

22.2 C

22.9 C

0 W/m

0.00 mm

22:15

22.1 C

1000.6 hpa

77 %

0.0 km/h aus 117

1.6 km/h aus NE

17.8 C

22.7 C

22.1 C

22.7 C

0 W/m

0.00 mm

22:20

21.9 C

1000.6 hpa

78 %

0.0 km/h aus 115

3.2 km/h aus NE

17.9 C

22.6 C

21.9 C

22.6 C

0 W/m

0.00 mm

22:25

21.7 C

1000.6 hpa

79 %

0.0 km/h aus 115

3.2 km/h aus NE

17.9 C

22.4 C

21.7 C

22.4 C

0 W/m

0.00 mm

22:30

21.6 C

1000.5 hpa

79 %

0.0 km/h aus 116

3.2 km/h aus NE

17.8 C

22.2 C

21.6 C

22.2 C

0 W/m

0.00 mm

22:35

21.4 C

1000.5 hpa

79 %

0.0 km/h aus 117

0.0 km/h aus ---

17.6 C

22.1 C

21.4 C

22.1 C

0 W/m

0.00 mm

22:40

21.3 C

1000.5 hpa

80 %

0.0 km/h aus 116

3.2 km/h aus NE

17.7 C

21.9 C

21.3 C

21.9 C

0 W/m

0.00 mm

22:45

21.2 C

1000.3 hpa

79 %

1.6 km/h aus 114

3.2 km/h aus NE

17.4 C

21.7 C

21.2 C

21.7 C

0 W/m

0.00 mm

22:50

21.0 C

1000.3 hpa

80 %

0.0 km/h aus 116

0.0 km/h aus ---

17.4 C

21.7 C

21.0 C

21.7 C

0 W/m

0.00 mm

22:55

20.9 C

1000.3 hpa

81 %

0.0 km/h aus 117

0.0 km/h aus ---

17.5 C

21.6 C

20.9 C

21.6 C

0 W/m

0.00 mm

23:00

20.8 C

1000.1 hpa

81 %

0.0 km/h aus 115

3.2 km/h aus NE

17.4 C

21.6 C

20.8 C

21.6 C

0 W/m

0.00 mm

23:05

20.7 C

1000.1 hpa

81 %

1.6 km/h aus 114

4.8 km/h aus NE

17.3 C

21.5 C

20.7 C

21.5 C

0 W/m

0.00 mm

23:10

20.6 C

1000.1 hpa

82 %

1.6 km/h aus 117

6.4 km/h aus NNE

17.4 C

21.5 C

20.6 C

21.5 C

0 W/m

0.00 mm

23:15

20.5 C

1000.0 hpa

82 %

0.0 km/h aus 116

3.2 km/h aus NNE

17.3 C

21.4 C

20.5 C

21.4 C

0 W/m

0.00 mm

23:20

20.4 C

1000.0 hpa

83 %

1.6 km/h aus 117

6.4 km/h aus NNE

17.4 C

21.3 C

20.4 C

21.3 C

0 W/m

0.00 mm

23:25

20.3 C

1000.0 hpa

83 %

3.2 km/h aus 114

6.4 km/h aus NNE

17.3 C

21.2 C

20.3 C

21.2 C

0 W/m

0.00 mm

23:30

20.3 C

999.7 hpa

84 %

3.2 km/h aus 115

4.8 km/h aus NNE

17.5 C

21.2 C

20.3 C

21.2 C

0 W/m

0.00 mm

23:35

20.3 C

999.7 hpa

85 %

4.8 km/h aus 117

9.7 km/h aus NE

17.7 C

21.2 C

20.3 C

21.2 C

0 W/m

0.00 mm

23:40

20.3 C

999.7 hpa

86 %

4.8 km/h aus 117

9.7 km/h aus ENE

17.9 C

21.2 C

20.3 C

21.2 C

0 W/m

0.00 mm

23:45

20.3 C

999.6 hpa

87 %

4.8 km/h aus 116

11.3 km/h aus ENE

18.1 C

21.3 C

20.3 C

21.3 C

0 W/m

0.00 mm

23:50

20.3 C

999.6 hpa

87 %

4.8 km/h aus 114

11.3 km/h aus ENE

18.1 C

21.3 C

20.3 C

21.3 C

0 W/m

0.00 mm

23:55

20.3 C

999.6 hpa

87 %

8.0 km/h aus 117

16.1 km/h aus NE

18.1 C

21.3 C

20.3 C

21.3 C

0 W/m

0.00 mm